This is the latest recevied weather packets stored in our database for station/object NN3A-3. If no packets are shown the sender has not sent any weather packets the latest 1 day(s).
| Time | Temp. | Humidity | Pressure | Rain* | Wind** | Luminosity | Snow |
|---|---|---|---|---|---|---|---|
| 1778002387 | 23.33° C | 58% | 1009.6 hPa | 0 mm | 0 m/s | - | - |
| 1778001489 | 23.89° C | 58% | 1009.6 hPa | 0 mm | 0 m/s | - | - |
| 1778000889 | 23.89° C | 57% | 1009.6 hPa | 0 mm | 0 m/s | - | - |
| 1778000589 | 23.89° C | 57% | 1010 hPa | 0 mm | 0 m/s | - | - |
| 1778000289 | 23.89° C | 58% | 1010 hPa | 0 mm | 0 m/s | - | - |
| 1777999689 | 23.89° C | 60% | 1010 hPa | 0 mm | 0 m/s | - | - |
| 1777998490 | 23.89° C | 59% | 1010.3 hPa | 0 mm | 0 m/s | - | - |
| 1777997890 | 22.78° C | 60% | 1010 hPa | 0 mm | 0 m/s | - | - |
| 1777996991 | 22.78° C | 61% | 1010.3 hPa | 0 mm | 0 m/s | - | - |
| 1777996691 | 22.78° C | 61% | 1010.3 hPa | 0 mm | 0 m/s | - | - |
| 1777996390 | 21.67° C | 63% | 1010.6 hPa | 0 mm | 0 m/s | - | - |
| 1777996091 | 21.67° C | 63% | 1010.6 hPa | 0 mm | 0 m/s | - | - |
| 1777995791 | 21.67° C | 64% | 1011 hPa | 0 mm | 0 m/s | - | - |
| 1777995192 | 21.67° C | 64% | 1011 hPa | 0 mm | 0 m/s | - | - |
| 1777994891 | 21.11° C | 64% | 1011 hPa | 0 mm | 0 m/s | - | - |
| 1777994592 | 22.22° C | 64% | 1011 hPa | 0 mm | 0 m/s | - | - |
| 1777994292 | 22.22° C | 64% | 1011 hPa | 0 mm | 0 m/s | - | - |
| 1777993992 | 20.56° C | 65% | 1011 hPa | 0 mm | 0 m/s | - | - |
| 1777993392 | 20.56° C | 65% | 1011 hPa | 0 mm | 0 m/s | - | - |
| 1777993092 | 21.67° C | 66% | 1011 hPa | 0 mm | 0 m/s | - | - |
| 1777992793 | 20.56° C | 67% | 1011 hPa | 0 mm | 0 m/s | - | - |
| 1777992493 | 21.67° C | 67% | 1011 hPa | 0 mm | 0 m/s | - | - |
| 1777992193 | 21.67° C | 66% | 1010.6 hPa | 0 mm | 0 m/s | - | - |
| 1777991593 | 22.22° C | 65% | 1010.6 hPa | 0 mm | 0 m/s | - | - |
| 1777991293 | 21.11° C | 66% | 1010.6 hPa | 0 mm | 0 m/s | - | - |
* Rain latest hour (hover to see other rain measurements)
** Current wind speed in m/s (hover to see current wind gust speed)